#timestamp,LO_Frequency,Hit,StdDev 
1513260015.2,286047007.8,N
1513260035.1,286047009.9,N
1513260036.0,286047009.9,N
1513260055.8,286047004.6,N
1513260075.6,286047005.1,N
1513260095.5,286047006.7,N
1513260115.3,286047009.0,N
1513260135.2,286047011.2,N
1513260155.9,286047013.4,N
1513260175.7,286047011.0,N
1513260195.6,286047012.9,N
1513260215.4,286047012.7,N
1513260235.2,286047012.9,N
1513260255.1,286047014.3,N
1513260256.0,286047014.3,N
1513260275.8,286047013.5,N
1513260295.7,286047011.0,N
1513260315.5,286047012.9,N
1513260335.3,286047015.1,Y
1513260355.2,286047007.5,P
1513260375.0,286047006.5,P
1513260375.9,286047006.5,P
1513260395.8,286046998.7,N
1513260415.6,286046997.7,N
1513260435.4,286046995.6,N
1513260455.3,286046995.5,N
1513260475.1,286046990.4,N
1513260495.9,286046997.2,N
1513260515.7,286046992.6,N
1513260535.5,286046990.2,N
1513260555.4,286046995.5,N
1513260575.2,286047002.8,N
1513260595.0,286047005.9,N
1513260595.9,286047005.9,N
1513260615.8,286047001.8,N
1513260635.6,286047007.6,N
1513260655.5,286047006.6,N
1513260675.3,286047012.0,N
1513260695.1,286047015.1,N
1513260715.9,286047012.5,N
1513260735.7,286047014.4,N
1513260755.5,286047018.3,N
1513260775.4,286047014.9,N
1513260795.2,286047011.1,N
1513260815.1,286047014.2,N
1513260816.0,286047014.2,N
1513260835.8,286047017.8,N
1513260855.6,286047019.5,N
1513260875.5,286047021.4,N
1513260895.3,286047018.5,N
1513260915.2,286047014.2,N
1513260935.9,286047012.9,N
1513260955.7,286047008.0,N
1513260975.6,286047002.4,N
1513260995.4,286046999.9,N
1513261015.2,286047001.7,N
1513261035.1,286047002.4,N
1513261036.0,286047002.4,N
1513261055.8,286047005.7,N
1513261075.7,286047010.3,N
1513261095.5,286047008.5,N
1513261115.3,286046999.1,N
1513261135.2,286046992.8,N
1513261155.0,286046980.1,N
1513261155.9,286046980.1,N
1513261175.8,286046978.8,N
1513261195.6,286046979.1,N
1513261215.4,286046982.7,N
1513261235.3,286046982.3,N
1513261255.1,286046990.7,N
1513261275.8,286046998.7,N
1513261295.7,286046999.1,N
1513261315.5,286046998.8,N
1513261335.4,286047002.3,N
1513261355.2,286047006.4,N
1513261375.0,286047015.3,N
1513261375.9,286047015.3,N
1513261395.8,286047017.8,N
1513261415.6,286047018.8,N
1513261435.4,286047021.5,N
1513261455.3,286047021.1,N
1513261475.1,286047016.4,N
1513261495.9,286047014.3,N
1513261515.7,286047013.7,N
1513261535.5,286047011.9,N
1513261555.4,286047009.3,N
1513261575.2,286047009.1,N
1513261595.1,286047003.9,N
1513261596.0,286047003.9,N
1513261615.8,286047002.1,N
1513261635.6,286047003.2,N
1513261655.5,286047000.7,N
1513261675.3,286046995.8,N
1513261695.2,286046989.3,N
1513261715.9,286046985.0,N
1513261735.7,286046980.8,N
1513261755.6,286046986.1,N
1513261775.4,286046994.1,N
1513261795.2,286046995.4,N
1513261815.1,286046995.4,N
1513261816.0,286046995.4,N
1513261835.8,286046995.6,N
1513261855.7,286046995.1,N
1513261875.5,286046994.5,N
1513261895.3,286046994.2,N
1513261915.2,286046996.0,N
1513261935.0,286046990.7,N
1513261935.9,286046990.7,N
1513261955.8,286046991.0,N
1513261975.6,286046989.0,N
1513261995.4,286046988.0,N
1513262015.3,286046983.4,N
1513262035.1,286046977.1,N
1513262055.9,286046967.8,Y
1513262075.7,286046976.7,P
1513262095.5,286046988.0,N
1513262115.4,286046994.3,N
1513262135.2,286046994.8,N
1513262155.0,286046989.4,N
1513262155.9,286046989.4,N
1513262175.8,286046991.4,N
1513262195.6,286046991.3,N
1513262215.5,286046999.1,N
1513262235.3,286046997.4,N
1513262255.1,286046991.7,N
1513262275.9,286046997.9,N
1513262295.7,286046993.4,N
1513262315.5,286046998.2,N
1513262335.4,286047002.5,N
1513262355.2,286047002.5,N
1513262375.1,286047000.4,N
1513262376.0,286047000.4,N
1513262395.8,286047002.6,N
1513262415.6,286047002.2,N
1513262435.5,286047004.3,N
1513262455.3,286047002.3,N
1513262475.2,286046998.2,N
1513262495.9,286046999.0,N
1513262515.7,286047009.1,N
1513262535.6,286047012.9,N
1513262555.4,286047005.9,N
1513262575.3,286047002.0,N
1513262595.1,286046994.9,N
1513262596.0,286046994.9,N
1513262615.8,286046994.6,N
1513262635.7,286046992.9,N
1513262655.5,286046995.0,N
1513262675.3,286046999.3,N
1513262695.2,286046998.3,N
1513262715.0,286046996.2,N
1513262715.9,286046996.2,N
1513262735.8,286046999.6,N
1513262755.6,286046986.1,N
1513262775.4,286046969.4,Y
1513262795.3,286046961.4,P
1513262815.1,286046952.4,N
1513262835.9,286046944.6,N
1513262855.7,286046936.5,Y
1513262875.5,286046966.3,P
1513262895.4,286046961.4,P
1513262915.2,286046961.5,P
1513262935.1,286046961.5,Y
1513262936.0,286046961.5,P
1513262955.8,286046996.4,P
1513262975.6,286046992.5,N
1513262995.5,286046988.7,N
1513263015.3,286046987.2,N
1513263035.2,286046985.5,N
1513263055.9,286046982.3,N
1513263075.7,286046982.4,N
1513263095.6,286046980.8,N
1513263115.4,286046984.3,N
1513263135.2,286046984.3,N
1513263155.1,286046982.6,N
1513263156.0,286046982.6,N
1513263175.8,286046981.6,N
1513263195.7,286046984.3,N
1513263215.5,286046980.8,N
1513263235.3,286046981.0,N
1513263255.2,286046992.4,N
1513263275.0,286047001.3,N
1513263275.9,286047001.3,N
1513263295.7,286047004.9,N
1513263315.6,286047014.9,N
1513263335.4,286047025.2,N
1513263355.3,286047024.2,N
1513263375.1,286047027.2,N
1513263395.8,286047027.3,N
1513263415.7,286047035.1,N
1513263435.5,286047035.2,N
1513263455.4,286047037.6,N
1513263475.2,286047041.7,N
1513263495.0,286047044.5,N
1513263495.9,286047044.5,N
1513263515.8,286047052.2,N
1513263535.6,286047051.1,N
1513263555.4,286047045.9,N
1513263575.3,286047032.9,N
1513263595.1,286047026.5,N
